User: anonymous   Login
Location: Central Coast NSW, Australia
(33.2407°S, 151.4316°E)
Time: 05:16:05
(UTC+11:00)
Language:

EO-88 - Orbit

View from above orbital plane
View from above orbital plane
View from above satellite
View from above satellite

Ground track
Ground track

The orbit data is extracted from the following two-line orbital elements,

1 42017U 17008BX  18323.90215426 +.00001603 +00000-0 +67325-4 0  9993
2 42017 097.4313 027.9238 0006285 177.5721 182.5548 15.24908285097794
Epoch (UTC): 19 November 2018 21:39:06
Eccentricity: 0.0006285
inclination: 97.4313°
perigee height: 487 km
apogee height: 495 km
right ascension of ascending node: 27.9238°
argument of perigee: 177.5721°
revolutions per day: 15.24908285
mean anomaly at epoch: 182.5548°
orbit number at epoch: 9779

The dashed part of the orbit path shows where the satellite is in the earth's shadow,  

DLR